Location: Beutels
(47.8767°N, 9.8584°E)
Time: 05:26:13
(UTC+00:00)

ISS - Pass Details

Date: 19 May 2025
Orbit: 415 x 417 km, 51.6° (Epoch: 14 June)

Event Time Altitude Azimuth Distance (km) Brightness Sun altitude
Rises 20:14:48 0° 289° (WNW) 2,362 1.3 -10.8°
Reaches altitude 10° 20:16:56 10° 295° (WNW) 1,497 0.2 -11.1°
Maximum altitude 20:20:13 51° 12° (NNE) 535 -3.0 -11.5°
Drops below altitude 10° 20:23:30 10° 90° (E) 1,491 -1.3 -11.8°
Enters shadow 20:23:30 10° 90° (E) 1,493 -1.3 -11.8°
